TimePDT,TemperatureF,Dew PointF,Humidity,Sea Level PressureIn,VisibilityMPH,Wind Direction,Wind SpeedMPH,Gust SpeedMPH,PrecipitationIn,Events,Conditions,WindDirDegrees,DateUTC
12:53 AM,44.1,39.0,82,30.12,10.0,NNE,5.8,-,N/A,,Clear,20,2013-10-25 07:53:00
1:53 AM,42.1,37.9,85,30.14,10.0,NNW,4.6,-,N/A,,Clear,340,2013-10-25 08:53:00
2:53 AM,43.0,37.9,82,30.15,10.0,NNE,8.1,-,N/A,,Clear,20,2013-10-25 09:53:00
3:53 AM,42.1,37.0,82,30.16,10.0,NNE,8.1,-,N/A,,Clear,20,2013-10-25 10:53:00
4:53 AM,44.1,39.0,82,30.17,10.0,NW,6.9,-,N/A,,Clear,320,2013-10-25 11:53:00
5:53 AM,39.0,36.0,89,30.19,10.0,NNW,3.5,-,N/A,,Clear,340,2013-10-25 12:53:00
6:53 AM,39.9,37.0,89,30.20,10.0,NNW,4.6,-,N/A,,Clear,340,2013-10-25 13:53:00
7:53 AM,39.9,37.0,89,30.23,10.0,North,3.5,-,N/A,,Clear,350,2013-10-25 14:53:00
8:53 AM,46.9,41.0,80,30.25,10.0,North,6.9,-,N/A,,Clear,10,2013-10-25 15:53:00
9:53 AM,52.0,42.1,69,30.24,10.0,NNE,5.8,-,N/A,,Clear,20,2013-10-25 16:53:00
10:53 AM,55.0,43.0,64,30.25,10.0,NE,8.1,-,N/A,,Clear,50,2013-10-25 17:53:00
11:53 AM,57.9,43.0,58,30.25,10.0,NE,5.8,-,N/A,,Clear,40,2013-10-25 18:53:00
12:53 PM,61.0,43.0,52,30.24,10.0,NE,5.8,-,N/A,,Clear,50,2013-10-25 19:53:00
1:53 PM,64.0,43.0,46,30.22,10.0,Calm,Calm,-,N/A,,Clear,0,2013-10-25 20:53:00
2:53 PM,64.9,43.0,45,30.21,10.0,East,3.5,-,N/A,,Clear,100,2013-10-25 21:53:00
3:53 PM,64.9,42.1,43,30.21,10.0,Calm,Calm,-,N/A,,Clear,0,2013-10-25 22:53:00
4:53 PM,64.9,42.1,43,30.21,10.0,Calm,Calm,-,N/A,,Clear,0,2013-10-25 23:53:00
5:53 PM,55.9,41.0,57,30.21,10.0,SW,5.8,-,N/A,,Clear,220,2013-10-26 00:53:00
6:53 PM,51.1,41.0,68,30.22,10.0,Calm,Calm,-,N/A,,Clear,0,2013-10-26 01:53:00
7:53 PM,51.1,39.9,66,30.23,10.0,Calm,Calm,-,N/A,,Clear,0,2013-10-26 02:53:00
8:53 PM,51.1,39.9,66,30.24,10.0,North,9.2,-,N/A,,Clear,360,2013-10-26 03:53:00
9:53 PM,53.1,41.0,64,30.24,10.0,NNW,5.8,-,N/A,,Clear,340,2013-10-26 04:53:00
10:53 PM,48.9,41.0,74,30.25,10.0,North,6.9,-,N/A,,Clear,350,2013-10-26 05:53:00
11:53 PM,46.0,39.0,76,30.26,10.0,North,6.9,-,N/A,,Clear,350,2013-10-26 06:53:00